Regional Weather Roundup
Issued by NWS Upton, NY

Current Version | Previous Version | Text Only | Print | Product List | Glossary Off
Versions: 1 2 3 4 5 6 7 8 9 10 11 12 13 14 15 16 17 18 19 20 21 22 23 24 25 26 27 28 29 30 31 32 33 34 35 36 37 38 39 40 41 42 43 44 45 46 47 48 49 50
000 ASUS41 KOKX 260708 RWROKX REGIONAL WEATHER ROUNDUP NATIONAL WEATHER SERVICE NEW YORK NY 300 AM EDT TUE MAY 26 2015 NOTE: "FAIR" INDICATES FEW OR NO CLOUDS BELOW 12,000 FEET WITH NO SIGNIFICANT WEATHER AND/OR OBSTRUCTIONS TO VISIBILITY. NYZ071-072-176-178-NJZ106-104-260800- NEW YORK CITY METRO AREA CITY SKY/WX TMP DP RH WIND PRES REMARKS CENTRAL PARK CLEAR 69 52 54 VRB5 30.21R LAGUARDIA APRT PTCLDY 69 51 52 SW13 30.18S KENNEDY INTL PTCLDY 62 53 72 S9 30.21R NEWARK/LIBERTY PTCLDY 68 53 58 S9 30.18S BRNX BOT. GARD N/A 70 52 52 W9 30.21R TETERBORO CLEAR 70 53 54 S12 30.16F $$ NYZ177-179-078>081-260800- LONG ISLAND NEW YORK CITY SKY/WX TMP DP RH WIND PRES REMARKS FARMINGDALE CLEAR 62 56 80 SW14 30.21R ISLIP CLEAR 62 55 77 SW12 30.20R SHIRLEY CLEAR 62 56 80 SW12 30.23R WESTHAMPTON CLEAR 60 56 86 SW8 30.24R MONTAUK POINT N/A 59 54 83 VRB7 30.23S $$ NYZ052-065-067-260800- HUDSON VALLEY CITY SKY/WX TMP DP RH WIND PRES REMARKS WHITE PLAINS CLEAR 68 54 60 VRB6 30.17S NEWBURGH CLEAR 72 59 64 W8 30.17 MONTGOMERY PTCLDY 67 60 78 SW8 30.15S POUGHKEEPSIE PTCLDY 71 58 63 CALM 30.14R ALBANY PTCLDY 74 57 55 S9 30.07S $$ NJZ001-105-106-008-010-013-015-019>022-104-260800- NEW JERSEY CITY SKY/WX TMP DP RH WIND PRES REMARKS NEWARK/LIBERTY PTCLDY 68 53 58 S9 30.18S TETERBORO CLEAR 70 53 54 S12 30.16F CALDWELL CLEAR 68 54 60 VRB5 30.18R MORRISTOWN CLEAR 66 55 68 CALM 30.18S SOMERVILLE CLEAR 62 55 77 CALM 30.17S SUSSEX CLEAR 67 58 72 SW3 30.19R ANDOVER N/A 66 58 75 VRB3 30.18S TRENTON CLEAR 65 53 65 SW8 30.19S MILLVILLE CLEAR 65 59 81 SW3 30.22S ATLANTIC CITY CLEAR 63 58 83 S8 30.23S WRIGHTSTOWN CLEAR 60 55 82 SW7 30.19S TOMS RIVER CLEAR N/A N/A N/A S6 30.21S BELMAR CLEAR 64 52 63 SW8 30.21S $$ PAZ047>061-062-071-260800- EASTERN PENNSYLVANIA CITY SKY/WX TMP DP RH WIND PRES REMARKS PHILADELPHIA CLEAR 67 54 63 S9 30.21S ALLENTOWN CLEAR 63 57 81 SW6 30.18S SCRANTON PTCLDY 70 57 63 SW5 30.16F $$ CTZ002-004>006-009-010-012-RIZ004-006-007-MAZ004-011-015-260800- SOUTHERN NEW ENGLAND IN CT CITY SKY/WX TMP DP RH WIND PRES REMARKS BRADLEY INTL PTCLDY 66 56 70 S12 30.14R HARTFORD CLEAR 66 55 67 S12 30.16S DANBURY CLEAR 66 55 67 VRB5 30.18S WTRBRY/OXFORD CLEAR 63 54 72 SW6 30.20S BRIDGEPORT CLEAR 62 53 72 SW10 30.18S MERIDEN CLEAR 63 53 70 S7 30.18R NEW HAVEN CLEAR 62 53 72 S8 30.19S CHESTER FAIR 63 52 67 SW8 30.21R GROTON PTCLDY 60 53 77 SW6 30.21R WILLIMANTIC PTCLDY 64 53 67 S5 30.18S IN RI CITY SKY/WX TMP DP RH WIND PRES REMARKS PROVIDENCE MOCLDY 65 51 60 SW14 30.19S BLOCK ISLAND PTCLDY 57 52 82 SW17G24 30.22S WESTERLY PTCLDY 60 53 77 SW12 30.22R IN MA CITY SKY/WX TMP DP RH WIND PRES REMARKS BOSTON CLOUDY 65 55 70 SW12 30.13S WORCESTER PTCLDY 64 54 69 SW16 30.15S WESTFIELD PTCLDY 66 56 70 SE12 30.12 PROVINCETOWN MOCLDY 59 52 77 SW20G25 30.18S NANTUCKET MOCLDY 59 55 87 SW17 30.24F $$ ANZ330-335-338-340-345-350-353-355-260800- COASTAL MARINE OBSERVATIONS STATION/POSITION TIME SKY/WX TEMP WIND PRES VSBY WAVE AIR SEA DIR/SP/G HT/PER (UTC) (F) (DEG/KT/KT) (MB) (MI) (FT/S) NY HARB ENTRANCE 0650 60 56 210/ 16/ 17 1022.3 4/ 6 4S FIRE IS 0603 54 N/A 5/ 6 20S FIRE ISLAND 0650 59 55 200/ 16/ 17 1022.8 4/ 6 GREAT SOUTH BAY 0600 61 64 240/ 17/ 23 N/A 23SW MTP 0650 57 52 210/ 16/ 19 1022.9 4/ 6 HUDSON CANYON NOT AVBL KINGS POINT 0600 67 60 220/ 11/ 15 1021.4 CENTRAL LI SOUND 0600 61 54 200/ 16/ 17 N/A EASTERN LI SOUND 0600 58 210/ 14/ 17 N/A ROBBINS REEF 0600 69 210/ 13/ 15 1021.1 $$ >>>>>>>>>>>>>>>>>>>>>>>>>>>> KEY <<<<<<<<<<<<<<<<<<<<<<<<<<< > < > SKY/WX - SKY CONDITION/PRESENT WEATHER < > TMP - TEMPERATURE IN FAHRENHEIT < > DP - DEWPOINT IN FAHRENHEIT < > RH - RELATIVE HUMIDITY IN PERCENT < > WIND - DIRECTION AND SPEED IN MPH < > PRES - MEAN SEA LEVEL PRESSURE IN INCHES OF HG < > WCI - WIND CHILL INDEX < > VSB - VISIBILITY IN MILES < > HX - HEAT INDEX < > TC - TEMPERATURE IN CELSIUS < > VRB - VARIABLE WIND DIRECTION < > < >>>>>>>>>>>>>>>>>>>>>>>>>>>> KEY <<<<<<<<<<<<<<<<<<<<<<<<<<<

USA.gov is the U.S. government's official web portal to all federal, state and local government web resources and services.